Regional Weather Roundup
Issued by NWS

Home | Current Version | Previous Version | Text Only | Print | Product List | Glossary On
Versions: 1 2 3 4 5 6 7 8 9 10 11 12 13 14 15 16 17 18 19 20 21 22 23 24 25 26 27
000
ASCA42 TJSJ 282310
RWRPR
PUERTO RICO/U.S. VIRGIN ISLANDS HOURLY WEATHER ROUNDUP
NATIONAL WEATHER SERVICE SAN JUAN PR
700 PM AST WED JUN 28 2017

PRZ001>002-007>008-010-290000-
PUERTO RICO

CITY           SKY/WX    TMP DP  RH WIND       PRES   REMARKS
SAN JUAN LMM   MOCLDY    84  75  74 E15       30.00R HX  92
AGUADILLA      TSTM      75  73  94 SW3       30.02S
CEIBA          MOCLDY    82  79  89 E9        30.02R HX  93
$$

VIZ001>002-290000-
U.S. VIRGIN ISLANDS

CITY           SKY/WX    TMP DP  RH WIND       PRES   REMARKS
CHARLOTTE AMA  CLEAR     82  75  78 E9        29.99R
CHRISTIANSTED  PTCLDY    82  73  74 E13       30.00R
$$

HOURLY WEATHER ROUNDUP FOR THE NEWS MEDIA

CITY           SKY/WX    TMP DP  RH WIND       PRES   REMARKS
ORLANDO        MOSUNNY   85  73  67 E14       30.06R HX  91
NEW YORK       MOSUNNY   70  61  73 S20       30.10R
NEWARK         PTSUNNY   79  48  33 W9        30.08S
CHICAGO        CLOUDY    78  61  55 S23G32    29.79F
HARTFORD       MOSUNNY   71  55  56 SW12      30.04R
BOSTON         MOSUNNY   76  47  35 W14       30.02R
DALLAS         MOSUNNY   90  67  46 SE16      29.85F HX  93
PHILADELPHIA   PTSUNNY   79  47  32 SW13      30.12S
LOS ANGELES    MOSUNNY   71  60  68 W13       29.87F
WASHINGTON DC  PTSUNNY   76  50  40 S5        30.13F



USA.gov is the U.S. government's official web portal to all federal, state and local government web resources and services.